Time,TemperatureF,DewpointF,PressureIn,WindDirection,WindDirectionDegrees,WindSpeedMPH,WindSpeedGustMPH,Humidity,HourlyPrecipIn,Conditions,Clouds,dailyrainin,SoftwareType,DateUTC
2013-10-11 00:14:00,61.0,58.0,29.88,WNW,294,0.0,4.0,89,0.00,,,0.00,weatherlink.com 1.10,2013-10-11 04:14:00,
2013-10-11 00:29:00,61.0,58.0,29.88,WNW,294,1.0,3.0,88,0.00,,,0.00,weatherlink.com 1.10,2013-10-11 04:29:00,
2013-10-11 00:44:00,61.0,58.0,29.88,WNW,297,3.0,5.0,88,0.00,,,0.00,weatherlink.com 1.10,2013-10-11 04:44:00,
2013-10-11 00:59:00,61.1,58.0,29.87,NW,322,1.0,5.0,88,0.00,,,0.00,weatherlink.com 1.10,2013-10-11 04:59:00,
2013-10-11 01:14:00,61.1,58.0,29.87,NW,322,1.0,5.0,88,0.00,,,0.00,weatherlink.com 1.10,2013-10-11 05:14:00,
2013-10-11 01:29:00,61.1,58.0,29.87,NW,322,0.0,3.0,88,0.00,,,0.00,weatherlink.com 1.10,2013-10-11 05:29:00,
2013-10-11 01:45:00,61.1,58.0,29.87,NW,313,0.0,4.0,88,0.00,,,0.00,weatherlink.com 1.10,2013-10-11 05:45:00,
2013-10-11 02:00:00,61.1,58.0,29.87,WNW,299,0.0,4.0,88,0.00,,,0.00,weatherlink.com 1.10,2013-10-11 06:00:00,
2013-10-11 02:15:00,61.2,58.0,29.87,WNW,298,2.0,5.0,88,0.00,,,0.00,weatherlink.com 1.10,2013-10-11 06:15:00,
2013-10-11 02:30:00,61.2,58.0,29.87,WNW,285,2.0,4.0,88,0.00,,,0.00,weatherlink.com 1.10,2013-10-11 06:30:00,
2013-10-11 02:45:00,61.2,58.0,29.87,WNW,292,4.0,5.0,88,0.00,,,0.00,weatherlink.com 1.10,2013-10-11 06:45:00,
2013-10-11 03:00:00,61.1,58.0,29.86,WNW,292,0.0,3.0,88,0.00,,,0.00,weatherlink.com 1.10,2013-10-11 07:00:00,
2013-10-11 03:15:00,61.1,58.0,29.86,WNW,292,0.0,5.0,88,0.00,,,0.00,weatherlink.com 1.10,2013-10-11 07:15:00,
2013-10-11 03:30:00,61.2,58.0,29.85,WNW,292,0.0,3.0,88,0.00,,,0.00,weatherlink.com 1.10,2013-10-11 07:30:00,
2013-10-11 03:45:00,61.2,58.0,29.86,West,275,0.0,4.0,88,0.00,,,0.00,weatherlink.com 1.10,2013-10-11 07:45:00,
2013-10-11 04:00:00,61.2,58.0,29.86,West,281,0.0,4.0,88,0.00,,,0.00,weatherlink.com 1.10,2013-10-11 08:00:00,
2013-10-11 04:15:00,61.3,58.0,29.86,West,281,0.0,3.0,88,0.00,,,0.00,weatherlink.com 1.10,2013-10-11 08:15:00,
2013-10-11 04:30:00,61.2,58.0,29.86,West,281,0.0,4.0,88,0.00,,,0.00,weatherlink.com 1.10,2013-10-11 08:30:00,
2013-10-11 04:45:00,61.2,58.0,29.86,West,281,2.0,4.0,88,0.00,,,0.00,weatherlink.com 1.10,2013-10-11 08:45:00,
2013-10-11 05:00:00,61.1,58.0,29.87,West,281,0.0,4.0,88,0.00,,,0.00,weatherlink.com 1.10,2013-10-11 09:00:00,
2013-10-11 05:15:00,61.1,58.0,29.87,West,281,0.0,3.0,88,0.00,,,0.00,weatherlink.com 1.10,2013-10-11 09:15:00,
2013-10-11 05:30:00,61.2,58.0,29.88,West,281,0.0,3.0,88,0.00,,,0.00,weatherlink.com 1.10,2013-10-11 09:30:00,
2013-10-11 05:45:00,61.2,58.0,29.88,West,263,1.0,5.0,88,0.00,,,0.00,weatherlink.com 1.10,2013-10-11 09:45:00,
2013-10-11 06:00:00,61.2,58.0,29.88,West,264,0.0,2.0,88,0.00,,,0.00,weatherlink.com 1.10,2013-10-11 10:00:00,
2013-10-11 06:15:00,61.3,58.0,29.89,West,264,0.0,3.0,88,0.00,,,0.00,weatherlink.com 1.10,2013-10-11 10:15:00,
2013-10-11 06:30:00,61.2,58.0,29.89,West,264,0.0,3.0,88,0.00,,,0.00,weatherlink.com 1.10,2013-10-11 10:30:00,
2013-10-11 06:45:00,61.1,58.0,29.90,West,269,3.0,4.0,88,0.00,,,0.00,weatherlink.com 1.10,2013-10-11 10:45:00,
2013-10-11 07:00:00,61.0,58.0,29.90,West,272,0.0,4.0,88,0.00,,,0.00,weatherlink.com 1.10,2013-10-11 11:00:00,
2013-10-11 07:15:00,60.9,57.0,29.90,West,278,0.0,2.0,88,0.00,,,0.00,weatherlink.com 1.10,2013-10-11 11:15:00,
2013-10-11 07:30:00,61.0,58.0,29.90,West,279,0.0,4.0,88,0.00,,,0.00,weatherlink.com 1.10,2013-10-11 11:30:00,
2013-10-11 07:45:00,61.1,58.0,29.91,West,279,0.0,3.0,88,0.00,,,0.00,weatherlink.com 1.10,2013-10-11 11:45:00,
2013-10-11 08:00:00,61.2,57.0,29.91,West,279,0.0,4.0,87,0.00,,,0.00,weatherlink.com 1.10,2013-10-11 12:00:00,
2013-10-11 08:15:00,61.3,58.0,29.92,WNW,292,1.0,4.0,88,0.00,,,0.00,weatherlink.com 1.10,2013-10-11 12:15:00,
2013-10-11 08:30:00,61.6,58.0,29.92,WNW,291,0.0,3.0,88,0.00,,,0.00,weatherlink.com 1.10,2013-10-11 12:30:00,
2013-10-11 08:45:00,61.8,58.0,29.92,WNW,286,0.0,4.0,87,0.00,,,0.00,weatherlink.com 1.10,2013-10-11 12:45:00,
2013-10-11 09:00:00,62.0,58.0,29.92,WNW,286,0.0,5.0,87,0.00,,,0.00,weatherlink.com 1.10,2013-10-11 13:00:00,
2013-10-11 09:15:00,62.6,59.0,29.92,WNW,286,0.0,3.0,87,0.00,,,0.00,weatherlink.com 1.10,2013-10-11 13:15:00,
2013-10-11 09:30:00,62.7,59.0,29.92,WNW,286,0.0,4.0,88,0.00,,,0.00,weatherlink.com 1.10,2013-10-11 13:30:00,
2013-10-11 09:45:00,63.0,59.0,29.92,West,281,3.0,4.0,88,0.00,,,0.00,weatherlink.com 1.10,2013-10-11 13:45:00,
2013-10-11 10:00:00,63.2,60.0,29.92,NNW,333,0.0,3.0,88,0.00,,,0.00,weatherlink.com 1.10,2013-10-11 14:00:00,
2013-10-11 10:15:00,63.2,60.0,29.92,NNW,342,0.0,5.0,88,0.00,,,0.00,weatherlink.com 1.10,2013-10-11 14:15:00,
2013-10-11 10:45:00,64.3,61.0,29.92,NW,316,0.0,2.0,88,0.00,,,0.00,weatherlink.com 1.10,2013-10-11 14:45:00,
2013-10-11 11:00:00,65.3,61.0,29.92,NW,305,2.0,4.0,87,0.00,,,0.00,weatherlink.com 1.10,2013-10-11 15:00:00,
2013-10-11 11:15:00,65.6,62.0,29.92,NW,305,3.0,5.0,87,0.00,,,0.00,weatherlink.com 1.10,2013-10-11 15:15:00,
2013-10-11 11:30:00,65.8,62.0,29.92,WNW,290,2.0,6.0,87,0.00,,,0.00,weatherlink.com 1.10,2013-10-11 15:30:00,
2013-10-11 11:45:00,65.9,62.0,29.92,West,271,1.0,7.0,87,0.00,,,0.00,weatherlink.com 1.10,2013-10-11 15:45:00,
2013-10-11 12:00:00,66.2,62.0,29.93,West,273,0.0,3.0,87,0.00,,,0.00,weatherlink.com 1.10,2013-10-11 16:00:00,
2013-10-11 12:15:00,66.3,62.0,29.92,WNW,288,0.0,5.0,86,0.00,,,0.00,weatherlink.com 1.10,2013-10-11 16:15:00,
2013-10-11 12:30:00,66.1,62.0,29.92,WNW,284,2.0,5.0,87,0.00,,,0.00,weatherlink.com 1.10,2013-10-11 16:30:00,
2013-10-11 12:45:00,66.0,62.0,29.92,WNW,285,1.0,6.0,87,0.00,,,0.00,weatherlink.com 1.10,2013-10-11 16:45:00,
2013-10-11 13:00:00,65.7,62.0,29.91,WNW,285,1.0,5.0,87,0.00,,,0.00,weatherlink.com 1.10,2013-10-11 17:00:00,
2013-10-11 13:15:00,65.5,62.0,29.90,WNW,289,2.0,6.0,87,0.00,,,0.00,weatherlink.com 1.10,2013-10-11 17:15:00,
2013-10-11 13:30:00,65.6,62.0,29.90,WNW,290,2.0,4.0,87,0.00,,,0.00,weatherlink.com 1.10,2013-10-11 17:30:00,
2013-10-11 13:45:00,65.7,62.0,29.90,West,267,4.0,5.0,87,0.00,,,0.00,weatherlink.com 1.10,2013-10-11 17:45:00,
2013-10-11 14:00:00,65.6,62.0,29.90,NNW,347,1.0,6.0,87,0.00,,,0.00,weatherlink.com 1.10,2013-10-11 18:00:00,
2013-10-11 14:15:00,65.6,62.0,29.89,NNW,343,0.0,6.0,87,0.00,,,0.00,weatherlink.com 1.10,2013-10-11 18:15:00,
2013-10-11 14:30:00,65.5,62.0,29.89,NW,319,5.0,6.0,87,0.00,,,0.00,weatherlink.com 1.10,2013-10-11 18:30:00,
2013-10-11 14:45:00,65.4,62.0,29.89,NW,321,3.0,6.0,87,0.00,,,0.00,weatherlink.com 1.10,2013-10-11 18:45:00,
2013-10-11 15:00:00,65.5,62.0,29.89,North,355,0.0,4.0,87,0.00,,,0.00,weatherlink.com 1.10,2013-10-11 19:00:00,
2013-10-11 15:15:00,65.9,62.0,29.89,North,355,1.0,5.0,87,0.00,,,0.00,weatherlink.com 1.10,2013-10-11 19:15:00,
2013-10-11 15:30:00,66.2,62.0,29.89,NNW,336,0.0,4.0,86,0.00,,,0.00,weatherlink.com 1.10,2013-10-11 19:30:00,
2013-10-11 15:45:00,66.1,62.0,29.89,NNW,335,0.0,3.0,86,0.00,,,0.00,weatherlink.com 1.10,2013-10-11 19:45:00,
2013-10-11 16:00:00,66.0,62.0,29.89,NNW,329,1.0,5.0,86,0.00,,,0.00,weatherlink.com 1.10,2013-10-11 20:00:00,
2013-10-11 16:15:00,66.1,62.0,29.89,WNW,290,0.0,5.0,86,0.00,,,0.00,weatherlink.com 1.10,2013-10-11 20:15:00,
2013-10-11 16:30:00,66.1,62.0,29.89,WNW,292,1.0,4.0,86,0.00,,,0.00,weatherlink.com 1.10,2013-10-11 20:30:00,
2013-10-11 16:45:00,65.9,62.0,29.90,WNW,293,0.0,4.0,86,0.00,,,0.00,weatherlink.com 1.10,2013-10-11 20:45:00,
2013-10-11 17:01:00,65.9,62.0,29.90,NW,315,0.0,4.0,87,0.00,,,0.00,weatherlink.com 1.10,2013-10-11 21:01:00,
2013-10-11 17:15:00,65.9,62.0,29.90,NW,315,0.0,2.0,87,0.00,,,0.00,weatherlink.com 1.10,2013-10-11 21:15:00,
2013-10-11 17:30:00,65.7,62.0,29.90,NW,315,0.0,3.0,87,0.00,,,0.00,weatherlink.com 1.10,2013-10-11 21:30:00,
2013-10-11 17:45:00,65.7,62.0,29.90,NW,315,0.0,1.0,87,0.00,,,0.00,weatherlink.com 1.10,2013-10-11 21:45:00,
2013-10-11 18:00:00,65.7,62.0,29.90,NW,315,0.0,2.0,87,0.00,,,0.00,weatherlink.com 1.10,2013-10-11 22:00:00,
2013-10-11 18:15:00,65.7,62.0,29.90,NW,315,0.0,2.0,87,0.00,,,0.00,weatherlink.com 1.10,2013-10-11 22:15:00,
2013-10-11 18:30:00,65.5,62.0,29.90,NW,314,0.0,3.0,87,0.00,,,0.00,weatherlink.com 1.10,2013-10-11 22:30:00,
2013-10-11 18:45:00,65.3,61.0,29.90,NW,314,0.0,1.0,87,0.00,,,0.00,weatherlink.com 1.10,2013-10-11 22:45:00,
2013-10-11 19:00:00,65.2,61.0,29.91,NW,314,0.0,0.0,87,0.00,,,0.00,weatherlink.com 1.10,2013-10-11 23:00:00,
2013-10-11 19:15:00,65.0,61.0,29.91,NW,314,0.0,0.0,88,0.00,,,0.00,weatherlink.com 1.10,2013-10-11 23:15:00,
2013-10-11 19:30:00,64.9,61.0,29.91,NW,314,0.0,0.0,87,0.00,,,0.00,weatherlink.com 1.10,2013-10-11 23:30:00,
2013-10-11 19:45:00,64.9,61.0,29.92,NW,314,0.0,0.0,88,0.00,,,0.00,weatherlink.com 1.10,2013-10-11 23:45:00,
2013-10-11 20:00:00,64.9,61.0,29.92,NW,314,0.0,4.0,88,0.00,,,0.00,weatherlink.com 1.10,2013-10-12 00:00:00,
2013-10-11 20:15:00,64.8,61.0,29.93,NW,314,0.0,0.0,88,0.00,,,0.00,weatherlink.com 1.10,2013-10-12 00:15:00,
2013-10-11 20:30:00,64.9,61.0,29.93,NW,314,0.0,1.0,88,0.00,,,0.00,weatherlink.com 1.10,2013-10-12 00:30:00,
2013-10-11 20:46:00,64.9,61.0,29.93,NW,314,0.0,1.0,88,0.00,,,0.00,weatherlink.com 1.10,2013-10-12 00:46:00,
2013-10-11 21:01:00,64.9,61.0,29.93,NW,314,0.0,2.0,88,0.00,,,0.00,weatherlink.com 1.10,2013-10-12 01:01:00,
2013-10-11 21:16:00,64.9,61.0,29.93,NW,314,0.0,0.0,88,0.00,,,0.00,weatherlink.com 1.10,2013-10-12 01:16:00,
2013-10-11 21:31:00,64.9,61.0,29.94,NW,314,0.0,0.0,88,0.00,,,0.00,weatherlink.com 1.10,2013-10-12 01:31:00,
2013-10-11 21:46:00,64.9,61.0,29.94,NW,314,0.0,2.0,88,0.00,,,0.00,weatherlink.com 1.10,2013-10-12 01:46:00,
2013-10-11 22:01:00,64.8,61.0,29.95,NW,314,0.0,2.0,88,0.00,,,0.00,weatherlink.com 1.10,2013-10-12 02:01:00,
2013-10-11 22:16:00,64.8,61.0,29.95,NW,314,0.0,0.0,88,0.00,,,0.00,weatherlink.com 1.10,2013-10-12 02:16:00,
2013-10-11 22:31:00,64.9,61.0,29.95,NW,314,0.0,1.0,88,0.00,,,0.00,weatherlink.com 1.10,2013-10-12 02:31:00,
2013-10-11 22:46:00,64.9,61.0,29.95,NW,314,0.0,0.0,88,0.00,,,0.00,weatherlink.com 1.10,2013-10-12 02:46:00,
2013-10-11 23:01:00,64.9,61.0,29.94,NW,314,0.0,1.0,88,0.00,,,0.00,weatherlink.com 1.10,2013-10-12 03:01:00,
2013-10-11 23:16:00,64.8,61.0,29.94,NW,314,0.0,0.0,88,0.00,,,0.00,weatherlink.com 1.10,2013-10-12 03:16:00,
2013-10-11 23:31:00,64.7,61.0,29.94,NW,314,0.0,0.0,88,0.00,,,0.00,weatherlink.com 1.10,2013-10-12 03:31:00,
2013-10-11 23:46:00,64.7,61.0,29.94,NW,314,0.0,0.0,87,0.00,,,0.00,weatherlink.com 1.10,2013-10-12 03:46:00,